Flag for Norway Weather past 2 weeks in Elverum, Norway

Now
44 °F

Quite cool.


Feels Like: 44 °F
Forecast: 46 / 50 °F
Wind: No wind

Location: Haugedalshogda

Current Time: Sep 4, 2015 at 6:47:18 AM

Latest Report: Sep 4, 2015 at 5:00 AM


Visibility: N/A

Pressure: 29.91 "Hg

Humidity: 96%

Dew point: 43 °F

Location of ElverumLocation

Historic Weather in Elverum — Graph

°F

Elverum temperature yesterday

Maximum temperature yesterday: 55 °F (at 5:00 PM)
Minimum temperature yesterday: 47 °F (at 4:00 AM)
Average temperature yesterday: 50 °F

Past Weeks' High & Low Weather Summary

 TemperatureHumidityPressure
High77 °F (Aug 23, 6:00 PM)96% (Aug 20, 6:00 AM)30.46 "Hg (Aug 20, 6:00 AM)
Low32 °F (Aug 22, 5:00 AM)23% (Aug 20, 3:00 PM)29.47 "Hg (Aug 27, 8:00 PM)
Average55 °F75%30.00 "Hg
* Reported Aug 20 4:00 AM — Sep 4 4:00 AM, Elverum, Weather by CustomWeather, © 2015

Note: Actual official high and low records may vary slightly from our data, if they occured in-between our weather recording intervals... More about our weather records

Advertising

Elverum weather history for previous 24 hours

 ConditionsComfort  
Time TempWeatherWind HumidityBarometerVisibility
4:00 AM
Fri, Sep 4
49 °FCool.2 mph95%29.91 "HgN/A
3:00 AM49 °FCool.2 mph95%29.92 "HgN/A
2:00 AM49 °FCool.No wind95%29.93 "HgN/A
1:00 AM50 °FCool.1 mph95%29.94 "HgN/A
12:00 AM51 °FCool.1 mph95%29.94 "HgN/A
11:00 PM
Thu, Sep 3
51 °FCool.1 mph95%29.95 "HgN/A
10:00 PM51 °FCool.1 mph94%29.95 "HgN/A
9:00 PM52 °FCool.2 mph92%29.95 "HgN/A
8:00 PM52 °FCool.1 mph89%29.94 "HgN/A
7:00 PM53 °FCool.3 mph86%29.94 "HgN/A
6:00 PM54 °FCool.5 mph85%29.93 "HgN/A
5:00 PM55 °FCool.5 mph84%29.93 "HgN/A
4:00 PM53 °FCool.2 mph87%29.94 "HgN/A
3:00 PM54 °FCool.2 mph85%29.94 "HgN/A
2:00 PM54 °FCool.2 mph81%29.94 "HgN/A
1:00 PM52 °FCool.3 mph88%29.95 "HgN/A
12:00 PM51 °FCool.3 mph88%29.94 "HgN/A
11:00 AM51 °FCool.3 mph90%29.94 "HgN/A
10:00 AM49 °FCool.3 mph93%29.94 "HgN/A
9:00 AM48 °FCool.3 mph94%29.93 "HgN/A
8:00 AM48 °FCool.3 mph91%29.92 "HgN/A
7:00 AM47 °FCool.5 mph92%29.91 "HgN/A
Weather by CustomWeather, © 2015

See weather overviewHow to use our weather pages